Location: Silverdale
(47.6506°N, 122.6941°W)
Time: 15:58:17
(UTC+00:00)

Transit 2A - Pass Details

Date: 11 October 2022
Orbit: 598 x 959 km, 66.7° (Epoch: 30 November)

Event Time Altitude Azimuth Distance (km) Brightness Sun altitude
Exits shadow 11:24:10 - 348° (NNW) 2,267 8.6 -30.4°
Reaches altitude 10° 11:25:12 10° 359° (N) 2,053 8.5 -30.3°
Maximum altitude 11:27:34 14° 30° (NNE) 1,855 8.6 -29.9°
Drops below altitude 10° 11:30:00 10° 61° (ENE) 2,142 9.2 -29.5°
Sets 11:33:38 0° 87° (E) 3,141 10.2 -29.0°
